Year,Month,Day,Hour,Minute,Value (Times are PST for temperature in C)
2016,05,31,00,00,11.60
2016,05,31,00,01,11.60
2016,05,31,00,02,11.60
2016,05,31,00,03,11.60
2016,05,31,00,04,11.60
2016,05,31,00,05,11.60
2016,05,31,00,06,11.60
2016,05,31,00,07,11.50
2016,05,31,00,08,11.40
2016,05,31,00,09,11.40
2016,05,31,00,10,11.40
2016,05,31,00,11,11.40
2016,05,31,00,12,11.40
2016,05,31,00,13,11.40
2016,05,31,00,14,11.40
2016,05,31,00,15,11.40
2016,05,31,00,16,11.40
2016,05,31,00,17,11.40
2016,05,31,00,18,11.40
2016,05,31,00,19,11.40
2016,05,31,00,20,11.40
2016,05,31,00,21,11.40
2016,05,31,00,22,11.40
2016,05,31,00,23,11.40
2016,05,31,00,24,11.40
2016,05,31,00,25,11.40
2016,05,31,00,26,11.40
2016,05,31,00,27,11.40
2016,05,31,00,28,11.40
2016,05,31,00,29,11.40
2016,05,31,00,30,11.40
2016,05,31,00,31,11.40
2016,05,31,00,32,11.40
2016,05,31,00,33,11.40
2016,05,31,00,34,11.40
2016,05,31,00,35,11.40
2016,05,31,00,36,11.40
2016,05,31,00,37,11.40
2016,05,31,00,38,11.40
2016,05,31,00,39,11.40
2016,05,31,00,40,11.30
2016,05,31,00,41,11.30
2016,05,31,00,42,11.30
2016,05,31,00,43,11.30
2016,05,31,00,44,11.30
2016,05,31,00,45,11.30
2016,05,31,00,46,11.30
2016,05,31,00,47,11.30
2016,05,31,00,48,11.30
2016,05,31,00,49,11.20
2016,05,31,00,50,11.20
2016,05,31,00,51,11.20
2016,05,31,00,52,11.20
2016,05,31,00,53,11.10
2016,05,31,00,54,11.10
2016,05,31,00,55,11.10
2016,05,31,00,56,11.10
2016,05,31,00,57,11.10
2016,05,31,00,58,11.10
2016,05,31,00,59,11.00
2016,05,31,01,00,10.90
2016,05,31,01,01,10.90
2016,05,31,01,02,10.90
2016,05,31,01,03,10.90
2016,05,31,01,04,10.90
2016,05,31,01,05,10.90
2016,05,31,01,06,10.90
2016,05,31,01,07,10.90
2016,05,31,01,08,10.90
2016,05,31,01,09,10.90
2016,05,31,01,10,10.90
2016,05,31,01,11,10.90
2016,05,31,01,12,10.90
2016,05,31,01,13,10.90
2016,05,31,01,14,10.90
2016,05,31,01,15,10.90
2016,05,31,01,16,10.80
2016,05,31,01,17,10.80
2016,05,31,01,18,10.80
2016,05,31,01,19,10.70
2016,05,31,01,20,10.70
2016,05,31,01,21,10.70
2016,05,31,01,22,10.70
2016,05,31,01,23,10.60
2016,05,31,01,24,10.60
2016,05,31,01,25,10.60
2016,05,31,01,26,10.60
2016,05,31,01,27,10.60
2016,05,31,01,28,10.60
2016,05,31,01,29,10.60
2016,05,31,01,30,10.60
2016,05,31,01,31,10.60
2016,05,31,01,32,10.60
2016,05,31,01,33,10.60
2016,05,31,01,34,10.60
2016,05,31,01,35,10.60
2016,05,31,01,36,10.60
2016,05,31,01,37,10.60
2016,05,31,01,38,10.60
2016,05,31,01,39,10.60
2016,05,31,01,40,10.50
2016,05,31,01,41,10.50
2016,05,31,01,42,10.40
2016,05,31,01,43,10.40
2016,05,31,01,44,10.40
2016,05,31,01,45,10.40
2016,05,31,01,46,10.40
2016,05,31,01,47,10.40
2016,05,31,01,48,10.40
2016,05,31,01,49,10.40
2016,05,31,01,50,10.40
2016,05,31,01,51,10.40
2016,05,31,01,52,10.40
2016,05,31,01,53,10.40
2016,05,31,01,54,10.40
2016,05,31,01,55,10.40
2016,05,31,01,56,10.40
2016,05,31,01,57,10.40
2016,05,31,01,58,10.40
2016,05,31,01,59,10.40
2016,05,31,02,00,10.40
2016,05,31,02,01,10.40
2016,05,31,02,02,10.40
2016,05,31,02,03,10.40
2016,05,31,02,04,10.40
2016,05,31,02,05,10.40
2016,05,31,02,06,10.40
2016,05,31,02,07,10.40
2016,05,31,02,08,10.40
2016,05,31,02,09,10.50
2016,05,31,02,10,10.60
2016,05,31,02,11,10.60
2016,05,31,02,12,10.60
2016,05,31,02,13,10.60
2016,05,31,02,14,10.60
2016,05,31,02,15,10.60
2016,05,31,02,16,10.60
2016,05,31,02,17,10.60
2016,05,31,02,18,10.50
2016,05,31,02,19,10.40
2016,05,31,02,20,10.40
2016,05,31,02,21,10.40
2016,05,31,02,22,10.40
2016,05,31,02,23,10.40
2016,05,31,02,24,10.40
2016,05,31,02,25,10.40
2016,05,31,02,26,10.40
2016,05,31,02,27,10.40
2016,05,31,02,28,10.40
2016,05,31,02,29,10.40
2016,05,31,02,30,10.30
2016,05,31,02,31,10.30
2016,05,31,02,32,10.30
2016,05,31,02,33,10.30
2016,05,31,02,34,10.30
2016,05,31,02,35,10.30
2016,05,31,02,36,10.30
2016,05,31,02,37,10.20
2016,05,31,02,38,10.20
2016,05,31,02,39,10.20
2016,05,31,02,40,10.10
2016,05,31,02,41,10.10
2016,05,31,02,42,10.10
2016,05,31,02,43,10.10
2016,05,31,02,44,10.10
2016,05,31,02,45,10.10
2016,05,31,02,46,10.10
2016,05,31,02,47,10.00
2016,05,31,02,48,9.90
2016,05,31,02,49,9.90
2016,05,31,02,50,9.90
2016,05,31,02,51,9.90
2016,05,31,02,52,9.90
2016,05,31,02,53,9.90
2016,05,31,02,54,9.90
2016,05,31,02,55,10.00
2016,05,31,02,56,10.10
2016,05,31,02,57,10.10
2016,05,31,02,58,10.10
2016,05,31,02,59,10.10
2016,05,31,03,00,10.10
2016,05,31,03,01,10.20
2016,05,31,03,02,10.20
2016,05,31,03,03,10.30
2016,05,31,03,04,10.30
2016,05,31,03,05,10.40
2016,05,31,03,06,10.40
2016,05,31,03,07,10.40
2016,05,31,03,08,10.40
2016,05,31,03,09,10.40
2016,05,31,03,10,10.40
2016,05,31,03,11,10.40
2016,05,31,03,12,10.40
2016,05,31,03,13,10.50
2016,05,31,03,14,10.40
2016,05,31,03,15,10.40
2016,05,31,03,16,10.40
2016,05,31,03,17,10.40
2016,05,31,03,18,10.40
2016,05,31,03,19,10.40
2016,05,31,03,20,10.40
2016,05,31,03,21,10.50
2016,05,31,03,22,10.60
2016,05,31,03,23,10.60
2016,05,31,03,24,10.60
2016,05,31,03,25,10.60
2016,05,31,03,26,10.60
2016,05,31,03,27,10.70
2016,05,31,03,28,10.70
2016,05,31,03,29,10.80
2016,05,31,03,30,10.80
2016,05,31,03,31,10.90
2016,05,31,03,32,10.90
2016,05,31,03,33,11.00
2016,05,31,03,34,11.10
2016,05,31,03,35,11.10
2016,05,31,03,36,11.10
2016,05,31,03,37,11.20
2016,05,31,03,38,11.20
2016,05,31,03,39,11.20
2016,05,31,03,40,11.20
2016,05,31,03,41,11.30
2016,05,31,03,42,11.30
2016,05,31,03,43,11.30
2016,05,31,03,44,11.40
2016,05,31,03,45,11.40
2016,05,31,03,46,11.40
2016,05,31,03,47,11.40
2016,05,31,03,48,11.40
2016,05,31,03,49,11.50
2016,05,31,03,50,11.60
2016,05,31,03,51,11.60
2016,05,31,03,52,11.60
2016,05,31,03,53,11.60
2016,05,31,03,54,11.60
2016,05,31,03,55,11.60
2016,05,31,03,56,11.70
2016,05,31,03,57,11.70
2016,05,31,03,58,11.70
2016,05,31,03,59,11.80
2016,05,31,04,00,11.80
2016,05,31,04,01,11.80
2016,05,31,04,02,11.80
2016,05,31,04,03,11.80
2016,05,31,04,04,11.80
2016,05,31,04,05,11.80
2016,05,31,04,06,11.80
2016,05,31,04,07,11.90
2016,05,31,04,08,11.90
2016,05,31,04,09,11.90
2016,05,31,04,10,12.00
2016,05,31,04,11,12.00
2016,05,31,04,12,12.00
2016,05,31,04,13,12.00
2016,05,31,04,14,12.00
2016,05,31,04,15,12.00
2016,05,31,04,16,12.00
2016,05,31,04,17,12.00
2016,05,31,04,18,12.00
2016,05,31,04,19,12.00
2016,05,31,04,20,12.00
2016,05,31,04,21,11.90
2016,05,31,04,22,11.90
2016,05,31,04,23,11.90
2016,05,31,04,24,11.90
2016,05,31,04,25,11.90
2016,05,31,04,26,11.90
2016,05,31,04,27,11.90
2016,05,31,04,28,11.90
2016,05,31,04,29,11.90
2016,05,31,04,30,11.90
2016,05,31,04,31,11.90
2016,05,31,04,32,11.90
2016,05,31,04,33,11.90
2016,05,31,04,34,11.80
2016,05,31,04,35,11.80
2016,05,31,04,36,11.80
2016,05,31,04,37,11.80
2016,05,31,04,38,11.90
2016,05,31,04,39,11.90
2016,05,31,04,40,11.90
2016,05,31,04,41,11.90
2016,05,31,04,42,12.00
2016,05,31,04,43,12.00
2016,05,31,04,44,12.00
2016,05,31,04,45,12.10
2016,05,31,04,46,12.10
2016,05,31,04,47,12.10
2016,05,31,04,48,12.20
2016,05,31,04,49,12.20
2016,05,31,04,50,12.10
2016,05,31,04,51,12.10
2016,05,31,04,52,12.10
2016,05,31,04,53,12.10
2016,05,31,04,54,12.10
2016,05,31,04,55,12.00
2016,05,31,04,56,12.00
2016,05,31,04,57,12.00
2016,05,31,04,58,12.00
2016,05,31,04,59,12.00
2016,05,31,05,00,11.90
2016,05,31,05,01,11.90
2016,05,31,05,02,11.90
2016,05,31,05,03,11.80
2016,05,31,05,04,11.80
2016,05,31,05,05,11.80
2016,05,31,05,06,11.80
2016,05,31,05,07,11.80
2016,05,31,05,08,11.80
2016,05,31,05,09,11.70
2016,05,31,05,10,11.70
2016,05,31,05,11,11.70
2016,05,31,05,12,11.70
2016,05,31,05,13,11.70
2016,05,31,05,14,11.70
2016,05,31,05,15,11.60
2016,05,31,05,16,11.60
2016,05,31,05,17,11.70
2016,05,31,05,18,11.70
2016,05,31,05,19,11.70
2016,05,31,05,20,11.70
2016,05,31,05,21,11.70
2016,05,31,05,22,11.70
2016,05,31,05,23,11.70
2016,05,31,05,24,11.70
2016,05,31,05,25,11.60
2016,05,31,05,26,11.60
2016,05,31,05,27,11.60
2016,05,31,05,28,11.60
2016,05,31,05,29,11.60
2016,05,31,05,30,11.60
2016,05,31,05,31,11.60
2016,05,31,05,32,11.60
2016,05,31,05,33,11.60
2016,05,31,05,34,11.50
2016,05,31,05,35,11.40
2016,05,31,05,36,11.40
2016,05,31,05,37,11.40
2016,05,31,05,38,11.40
2016,05,31,05,39,11.40
2016,05,31,05,40,11.40
2016,05,31,05,41,11.40
2016,05,31,05,42,11.40
2016,05,31,05,43,11.40
2016,05,31,05,44,11.30
2016,05,31,05,45,11.30
2016,05,31,05,46,11.30
2016,05,31,05,47,11.30
2016,05,31,05,48,11.30
2016,05,31,05,49,11.30
2016,05,31,05,50,11.30
2016,05,31,05,51,11.30
2016,05,31,05,52,11.30
2016,05,31,05,53,11.30
2016,05,31,05,54,11.40
2016,05,31,05,55,11.40
2016,05,31,05,56,11.40
2016,05,31,05,57,11.40
2016,05,31,05,58,11.40
2016,05,31,05,59,11.40
2016,05,31,06,00,11.40
2016,05,31,06,01,11.40
2016,05,31,06,02,11.40
2016,05,31,06,03,11.40
2016,05,31,06,04,11.40
2016,05,31,06,05,11.40
2016,05,31,06,06,11.40
2016,05,31,06,07,11.50
2016,05,31,06,08,11.60
2016,05,31,06,09,11.60
2016,05,31,06,10,11.50
2016,05,31,06,11,11.40
2016,05,31,06,12,11.40
2016,05,31,06,13,11.40
2016,05,31,06,14,11.40
2016,05,31,06,15,11.40
2016,05,31,06,16,11.40
2016,05,31,06,17,11.40
2016,05,31,06,18,11.40
2016,05,31,06,19,11.40
2016,05,31,06,20,11.40
2016,05,31,06,21,11.40
2016,05,31,06,22,11.40
2016,05,31,06,23,11.40
2016,05,31,06,24,11.40
2016,05,31,06,25,11.50
2016,05,31,06,26,11.60
2016,05,31,06,27,11.60
2016,05,31,06,28,11.60
2016,05,31,06,29,11.60
2016,05,31,06,30,11.60
2016,05,31,06,31,11.60
2016,05,31,06,32,11.60
2016,05,31,06,33,11.70
2016,05,31,06,34,11.70
2016,05,31,06,35,11.80
2016,05,31,06,36,11.80
2016,05,31,06,37,11.80
2016,05,31,06,38,11.80
2016,05,31,06,39,11.90
2016,05,31,06,40,11.90
2016,05,31,06,41,12.00
2016,05,31,06,42,12.10
2016,05,31,06,43,12.10
2016,05,31,06,44,12.10
2016,05,31,06,45,12.20
2016,05,31,06,46,12.20
2016,05,31,06,47,12.30
2016,05,31,06,48,12.30
2016,05,31,06,49,12.30
2016,05,31,06,50,12.30
2016,05,31,06,51,12.40
2016,05,31,06,52,12.40
2016,05,31,06,53,12.40
2016,05,31,06,54,12.50
2016,05,31,06,55,12.50
2016,05,31,06,56,12.60
2016,05,31,06,57,12.60
2016,05,31,06,58,12.60
2016,05,31,06,59,12.70
2016,05,31,07,00,12.70
2016,05,31,07,01,12.70
2016,05,31,07,02,12.70
2016,05,31,07,03,12.80
2016,05,31,07,04,12.80
2016,05,31,07,05,12.80
2016,05,31,07,06,12.80
2016,05,31,07,07,12.90
2016,05,31,07,08,12.90
2016,05,31,07,09,13.00
2016,05,31,07,10,13.10
2016,05,31,07,11,13.10
2016,05,31,07,12,13.20
2016,05,31,07,13,13.20
2016,05,31,07,14,13.30
2016,05,31,07,15,13.30
2016,05,31,07,16,13.30
2016,05,31,07,17,13.30
2016,05,31,07,18,13.30
2016,05,31,07,19,13.40
2016,05,31,07,20,13.40
2016,05,31,07,21,13.50
2016,05,31,07,22,13.50
2016,05,31,07,23,13.50
2016,05,31,07,24,13.60
2016,05,31,07,25,13.60
2016,05,31,07,26,13.60
2016,05,31,07,27,13.60
2016,05,31,07,28,13.70
2016,05,31,07,29,13.70
2016,05,31,07,30,13.70
2016,05,31,07,31,13.70
2016,05,31,07,32,13.70
2016,05,31,07,33,13.70
2016,05,31,07,34,13.70
2016,05,31,07,35,13.70
2016,05,31,07,36,13.70
2016,05,31,07,37,13.70
2016,05,31,07,38,13.80
2016,05,31,07,39,13.80
2016,05,31,07,40,13.80
2016,05,31,07,41,13.90
2016,05,31,07,42,13.90
2016,05,31,07,43,13.90
2016,05,31,07,44,14.00
2016,05,31,07,45,14.00
2016,05,31,07,46,14.00
2016,05,31,07,47,14.10
2016,05,31,07,48,14.10
2016,05,31,07,49,14.10
2016,05,31,07,50,14.20
2016,05,31,07,51,14.20
2016,05,31,07,52,14.20
2016,05,31,07,53,14.20
2016,05,31,07,54,14.20
2016,05,31,07,55,14.20
2016,05,31,07,56,14.20
2016,05,31,07,57,14.30
2016,05,31,07,58,14.30
2016,05,31,07,59,14.30
2016,05,31,08,00,14.30
2016,05,31,08,01,14.30
2016,05,31,08,02,14.40
2016,05,31,08,03,14.40
2016,05,31,08,04,14.40
2016,05,31,08,05,14.40
2016,05,31,08,06,14.50
2016,05,31,08,07,14.50
2016,05,31,08,08,14.50
2016,05,31,08,09,14.50
2016,05,31,08,10,14.60
2016,05,31,08,11,14.60
2016,05,31,08,12,14.60
2016,05,31,08,13,14.70
2016,05,31,08,14,14.70
2016,05,31,08,15,14.80
2016,05,31,08,16,14.80
2016,05,31,08,17,14.90
2016,05,31,08,18,15.00
2016,05,31,08,19,15.00
2016,05,31,08,20,15.10
2016,05,31,08,21,15.10
2016,05,31,08,22,15.20
2016,05,31,08,23,15.20
2016,05,31,08,24,15.30
2016,05,31,08,25,15.30
2016,05,31,08,26,15.30
2016,05,31,08,27,15.40
2016,05,31,08,28,15.50
2016,05,31,08,29,15.50
2016,05,31,08,30,15.50
2016,05,31,08,31,15.60
2016,05,31,08,32,15.60
2016,05,31,08,33,15.70
2016,05,31,08,34,15.80
2016,05,31,08,35,15.80
2016,05,31,08,36,16.00
2016,05,31,08,37,16.10
2016,05,31,08,38,16.20
2016,05,31,08,39,16.30
2016,05,31,08,40,16.40
2016,05,31,08,41,16.50
2016,05,31,08,42,16.70
2016,05,31,08,43,16.80
2016,05,31,08,44,16.90
2016,05,31,08,45,17.00
2016,05,31,08,46,17.00
2016,05,31,08,47,16.90
2016,05,31,08,48,16.90
2016,05,31,08,49,16.90
2016,05,31,08,50,16.90
2016,05,31,08,51,16.90
2016,05,31,08,52,16.80
2016,05,31,08,53,16.80
2016,05,31,08,54,16.90
2016,05,31,08,55,17.00
2016,05,31,08,56,17.10
2016,05,31,08,57,17.20
2016,05,31,08,58,17.30
2016,05,31,08,59,17.40
2016,05,31,09,00,17.40
2016,05,31,09,01,17.50
2016,05,31,09,02,17.50
2016,05,31,09,03,17.50
2016,05,31,09,04,17.60
2016,05,31,09,05,17.60
2016,05,31,09,06,17.70
2016,05,31,09,07,17.70
2016,05,31,09,08,17.80
2016,05,31,09,09,17.90
2016,05,31,09,10,17.90
2016,05,31,09,11,17.90
2016,05,31,09,12,18.00
2016,05,31,09,13,18.10
2016,05,31,09,14,18.20
2016,05,31,09,15,18.20
2016,05,31,09,16,18.20
2016,05,31,09,17,18.30
2016,05,31,09,18,18.30
2016,05,31,09,19,18.30
2016,05,31,09,20,18.30
2016,05,31,09,21,18.20
2016,05,31,09,22,18.20
2016,05,31,09,23,18.20
2016,05,31,09,24,18.20
2016,05,31,09,25,18.20
2016,05,31,09,26,18.20
2016,05,31,09,27,18.20
2016,05,31,09,28,18.20
2016,05,31,09,29,18.20
2016,05,31,09,30,18.20
2016,05,31,09,31,18.20
2016,05,31,09,32,18.20
2016,05,31,09,33,18.20
2016,05,31,09,34,18.10
2016,05,31,09,35,18.10
2016,05,31,09,36,18.00
2016,05,31,09,37,17.90
2016,05,31,09,38,17.90
2016,05,31,09,39,17.90
2016,05,31,09,40,17.90
2016,05,31,09,41,17.90
2016,05,31,09,42,17.90
2016,05,31,09,43,17.90
2016,05,31,09,44,17.90
2016,05,31,09,45,17.90
2016,05,31,09,46,17.90
2016,05,31,09,47,17.90
2016,05,31,09,48,18.00
2016,05,31,09,49,18.10
2016,05,31,09,50,18.10
2016,05,31,09,51,18.00
2016,05,31,09,52,17.90
2016,05,31,09,53,17.90
2016,05,31,09,54,18.00
2016,05,31,09,55,18.10
2016,05,31,09,56,18.10
2016,05,31,09,57,18.10
2016,05,31,09,58,18.10
2016,05,31,09,59,18.10
2016,05,31,10,00,18.20
2016,05,31,10,01,18.20
2016,05,31,10,02,18.20
2016,05,31,10,03,18.20
2016,05,31,10,04,18.30
2016,05,31,10,05,18.40
2016,05,31,10,06,18.40
2016,05,31,10,07,18.50
2016,05,31,10,08,18.50
2016,05,31,10,09,18.60
2016,05,31,10,10,18.70
2016,05,31,10,11,18.70
2016,05,31,10,12,18.90
2016,05,31,10,13,18.90
2016,05,31,10,14,18.90
2016,05,31,10,15,18.90
2016,05,31,10,16,18.90
2016,05,31,10,17,18.90
2016,05,31,10,18,18.90
2016,05,31,10,19,18.90
2016,05,31,10,20,18.90
2016,05,31,10,21,18.90
2016,05,31,10,22,18.90
2016,05,31,10,23,18.90
2016,05,31,10,24,18.90
2016,05,31,10,25,18.90
2016,05,31,10,26,18.80
2016,05,31,10,27,18.80
2016,05,31,10,28,18.80
2016,05,31,10,29,18.70
2016,05,31,10,30,18.70
2016,05,31,10,31,18.70
2016,05,31,10,32,18.80
2016,05,31,10,33,18.80
2016,05,31,10,34,18.80
2016,05,31,10,35,18.90
2016,05,31,10,36,18.90
2016,05,31,10,37,18.90
2016,05,31,10,38,18.90
2016,05,31,10,39,18.90
2016,05,31,10,40,19.00
2016,05,31,10,41,19.10
2016,05,31,10,42,19.10
2016,05,31,10,43,19.10
2016,05,31,10,44,19.10
2016,05,31,10,45,19.10
2016,05,31,10,46,19.10
2016,05,31,10,47,19.10
2016,05,31,10,48,19.10
2016,05,31,10,49,19.10
2016,05,31,10,50,19.10
2016,05,31,10,51,19.10
2016,05,31,10,52,19.10
2016,05,31,10,53,19.20
2016,05,31,10,54,19.20
2016,05,31,10,55,19.30
2016,05,31,10,56,19.30
2016,05,31,10,57,19.30
2016,05,31,10,58,19.30
2016,05,31,10,59,19.30
2016,05,31,11,00,19.30
2016,05,31,11,01,19.30
2016,05,31,11,02,19.30
2016,05,31,11,03,19.30
2016,05,31,11,04,19.40
2016,05,31,11,05,19.50
2016,05,31,11,06,19.50
2016,05,31,11,07,19.60
2016,05,31,11,08,19.60
2016,05,31,11,09,19.70
2016,05,31,11,10,19.80
2016,05,31,11,11,19.90
2016,05,31,11,12,20.00
2016,05,31,11,13,20.10
2016,05,31,11,14,20.10
2016,05,31,11,15,20.20
2016,05,31,11,16,20.20
2016,05,31,11,17,20.20
2016,05,31,11,18,20.10
2016,05,31,11,19,20.10
2016,05,31,11,20,20.10
2016,05,31,11,21,20.20
2016,05,31,11,22,20.10
2016,05,31,11,23,20.10
2016,05,31,11,24,20.10
2016,05,31,11,25,20.00
2016,05,31,11,26,19.90
2016,05,31,11,27,19.90
2016,05,31,11,28,19.90
2016,05,31,11,29,19.80
2016,05,31,11,30,19.70
2016,05,31,11,31,19.60
2016,05,31,11,32,19.50
2016,05,31,11,33,19.50
2016,05,31,11,34,19.60
2016,05,31,11,35,19.70
2016,05,31,11,36,19.80
2016,05,31,11,37,19.80
2016,05,31,11,38,19.90
2016,05,31,11,39,19.90
2016,05,31,11,40,19.90
2016,05,31,11,41,19.90
2016,05,31,11,42,20.00
2016,05,31,11,43,20.10
2016,05,31,11,44,20.10
2016,05,31,11,45,19.90
2016,05,31,11,46,19.90
2016,05,31,11,47,19.90
2016,05,31,11,48,20.00
2016,05,31,11,49,20.00
2016,05,31,11,50,19.90
2016,05,31,11,51,19.90
2016,05,31,11,52,19.90
2016,05,31,11,53,19.90
2016,05,31,11,54,19.80
2016,05,31,11,55,19.80
2016,05,31,11,56,19.80
2016,05,31,11,57,19.80
2016,05,31,11,58,19.80
2016,05,31,11,59,19.80
2016,05,31,12,00,19.90
2016,05,31,12,01,19.90
2016,05,31,12,02,19.90
2016,05,31,12,03,20.10
2016,05,31,12,04,20.20
2016,05,31,12,05,20.20
2016,05,31,12,06,20.20
2016,05,31,12,07,20.10
2016,05,31,12,08,20.00
2016,05,31,12,09,19.90
2016,05,31,12,10,20.00
2016,05,31,12,11,20.10
2016,05,31,12,12,20.10
2016,05,31,12,13,20.10
2016,05,31,12,14,20.10
2016,05,31,12,15,20.10
2016,05,31,12,16,20.00
2016,05,31,12,17,19.90
2016,05,31,12,18,19.90
2016,05,31,12,19,20.00
2016,05,31,12,20,20.10
2016,05,31,12,21,20.10
2016,05,31,12,22,20.20
2016,05,31,12,23,20.30
2016,05,31,12,24,20.40
2016,05,31,12,25,20.40
2016,05,31,12,26,20.50
2016,05,31,12,27,20.60
2016,05,31,12,28,20.60
2016,05,31,12,29,20.60
2016,05,31,12,30,20.60
2016,05,31,12,31,20.60
2016,05,31,12,32,20.50
2016,05,31,12,33,20.50
2016,05,31,12,34,20.50
2016,05,31,12,35,20.50
2016,05,31,12,36,20.50
2016,05,31,12,37,20.50
2016,05,31,12,38,20.50
2016,05,31,12,39,20.40
2016,05,31,12,40,20.40
2016,05,31,12,41,20.50
2016,05,31,12,42,20.60
2016,05,31,12,43,20.70
2016,05,31,12,44,20.70
2016,05,31,12,45,20.80
2016,05,31,12,46,20.80
2016,05,31,12,47,20.90
2016,05,31,12,48,20.90
2016,05,31,12,49,20.80
2016,05,31,12,50,20.60
2016,05,31,12,51,20.60
2016,05,31,12,52,20.60
2016,05,31,12,53,20.70
2016,05,31,12,54,20.80
2016,05,31,12,55,20.80
2016,05,31,12,56,20.80
2016,05,31,12,57,20.80
2016,05,31,12,58,20.80
2016,05,31,12,59,20.80
2016,05,31,13,00,20.80
2016,05,31,13,01,20.90
2016,05,31,13,02,20.90
2016,05,31,13,03,20.90
2016,05,31,13,04,20.80
2016,05,31,13,05,20.80
2016,05,31,13,06,20.70
2016,05,31,13,07,20.70
2016,05,31,13,08,20.70
2016,05,31,13,09,20.70
2016,05,31,13,10,20.80
2016,05,31,13,11,20.80
2016,05,31,13,12,20.90
2016,05,31,13,13,20.90
2016,05,31,13,14,20.80
2016,05,31,13,15,20.80
2016,05,31,13,16,20.80
2016,05,31,13,17,20.80
2016,05,31,13,18,20.90
2016,05,31,13,19,20.90
2016,05,31,13,20,21.00
2016,05,31,13,21,21.10
2016,05,31,13,22,21.10
2016,05,31,13,23,21.10
2016,05,31,13,24,21.10
2016,05,31,13,25,21.20
2016,05,31,13,26,21.10
2016,05,31,13,27,21.10
2016,05,31,13,28,21.10
2016,05,31,13,29,21.20
2016,05,31,13,30,21.20
2016,05,31,13,31,21.10
2016,05,31,13,32,21.00
2016,05,31,13,33,20.90
2016,05,31,13,34,20.80
2016,05,31,13,35,20.70
2016,05,31,13,36,20.70
2016,05,31,13,37,20.70
2016,05,31,13,38,20.70
2016,05,31,13,39,20.70
2016,05,31,13,40,20.70
2016,05,31,13,41,20.80
2016,05,31,13,42,20.80
2016,05,31,13,43,20.90
2016,05,31,13,44,20.90
2016,05,31,13,45,20.90
2016,05,31,13,46,20.90
2016,05,31,13,47,20.80
2016,05,31,13,48,20.80
2016,05,31,13,49,20.70
2016,05,31,13,50,20.70
2016,05,31,13,51,20.60
2016,05,31,13,52,20.60
2016,05,31,13,53,20.50
2016,05,31,13,54,20.60
2016,05,31,13,55,20.60
2016,05,31,13,56,20.70
2016,05,31,13,57,20.80
2016,05,31,13,58,20.90
2016,05,31,13,59,20.90
2016,05,31,14,00,20.90
2016,05,31,14,01,20.80
2016,05,31,14,02,20.70
2016,05,31,14,03,20.80
2016,05,31,14,04,20.80
2016,05,31,14,05,20.80
2016,05,31,14,06,20.80
2016,05,31,14,07,20.90
2016,05,31,14,08,21.00
2016,05,31,14,09,21.00
2016,05,31,14,10,21.10
2016,05,31,14,11,21.00
2016,05,31,14,12,20.90
2016,05,31,14,13,20.80
2016,05,31,14,14,20.70
2016,05,31,14,15,20.60
2016,05,31,14,16,20.60
2016,05,31,14,17,20.60
2016,05,31,14,18,20.50
2016,05,31,14,19,20.40
2016,05,31,14,20,20.40
2016,05,31,14,21,20.40
2016,05,31,14,22,20.40
2016,05,31,14,23,20.30
2016,05,31,14,24,20.20
2016,05,31,14,25,20.20
2016,05,31,14,26,20.20
2016,05,31,14,27,20.20
2016,05,31,14,28,20.30
2016,05,31,14,29,20.30
2016,05,31,14,30,20.40
2016,05,31,14,31,20.40
2016,05,31,14,32,20.50
2016,05,31,14,33,20.50
2016,05,31,14,34,20.60
2016,05,31,14,35,20.60
2016,05,31,14,36,20.60
2016,05,31,14,37,20.50
2016,05,31,14,38,20.50
2016,05,31,14,39,20.50
2016,05,31,14,40,20.50
2016,05,31,14,41,20.60
2016,05,31,14,42,20.60
2016,05,31,14,43,20.70
2016,05,31,14,44,20.70
2016,05,31,14,45,20.80
2016,05,31,14,46,20.80
2016,05,31,14,47,20.80
2016,05,31,14,48,20.80
2016,05,31,14,49,20.90
2016,05,31,14,50,20.90
2016,05,31,14,51,20.90
2016,05,31,14,52,20.90
2016,05,31,14,53,20.90
2016,05,31,14,54,20.90
2016,05,31,14,55,20.80
2016,05,31,14,56,20.80
2016,05,31,14,57,20.70
2016,05,31,14,58,20.70
2016,05,31,14,59,20.70
2016,05,31,15,00,20.60
2016,05,31,15,01,20.60
2016,05,31,15,02,20.60
2016,05,31,15,03,20.60
2016,05,31,15,04,20.70
2016,05,31,15,05,20.70
2016,05,31,15,06,20.80
2016,05,31,15,07,20.80
2016,05,31,15,08,20.80
2016,05,31,15,09,20.80
2016,05,31,15,10,20.70
2016,05,31,15,11,20.70
2016,05,31,15,12,20.70
2016,05,31,15,13,20.70
2016,05,31,15,14,20.70
2016,05,31,15,15,20.60
2016,05,31,15,16,20.50
2016,05,31,15,17,20.50
2016,05,31,15,18,20.50
2016,05,31,15,19,20.50
2016,05,31,15,20,20.40
2016,05,31,15,21,20.40
2016,05,31,15,22,20.40
2016,05,31,15,23,20.40
2016,05,31,15,24,20.40
2016,05,31,15,25,20.40
2016,05,31,15,26,20.40
2016,05,31,15,27,20.40
2016,05,31,15,28,20.30
2016,05,31,15,29,20.30
2016,05,31,15,30,20.40
2016,05,31,15,31,20.50
2016,05,31,15,32,20.70
2016,05,31,15,33,20.80
2016,05,31,15,34,20.80
2016,05,31,15,35,20.80
2016,05,31,15,36,20.80
2016,05,31,15,37,20.80
2016,05,31,15,38,20.90
2016,05,31,15,39,20.90
2016,05,31,15,40,20.90
2016,05,31,15,41,21.00
2016,05,31,15,42,21.00
2016,05,31,15,43,21.10
2016,05,31,15,44,21.10
2016,05,31,15,45,21.10
2016,05,31,15,46,21.10
2016,05,31,15,47,21.10
2016,05,31,15,48,21.10
2016,05,31,15,49,21.00
2016,05,31,15,50,20.90
2016,05,31,15,51,20.80
2016,05,31,15,52,20.70
2016,05,31,15,53,20.60
2016,05,31,15,54,20.50
2016,05,31,15,55,20.50
2016,05,31,15,56,20.50
2016,05,31,15,57,20.50
2016,05,31,15,58,20.50
2016,05,31,15,59,20.50
2016,05,31,16,00,20.50
2016,05,31,16,01,20.50
2016,05,31,16,02,20.50
2016,05,31,16,03,20.50
2016,05,31,16,04,20.50
2016,05,31,16,05,20.40
2016,05,31,16,06,20.30
2016,05,31,16,07,20.20
2016,05,31,16,08,20.20
2016,05,31,16,09,20.10
2016,05,31,16,10,20.10
2016,05,31,16,11,20.00
2016,05,31,16,12,19.90
2016,05,31,16,13,19.90
2016,05,31,16,14,19.90
2016,05,31,16,15,19.90
2016,05,31,16,16,19.90
2016,05,31,16,17,20.00
2016,05,31,16,18,20.10
2016,05,31,16,19,20.10
2016,05,31,16,20,20.10
2016,05,31,16,21,20.10
2016,05,31,16,22,20.20
2016,05,31,16,23,20.40
2016,05,31,16,24,20.50
2016,05,31,16,25,20.60
2016,05,31,16,26,20.60
2016,05,31,16,27,20.60
2016,05,31,16,28,20.60
2016,05,31,16,29,20.60
2016,05,31,16,30,20.60
2016,05,31,16,31,20.60
2016,05,31,16,32,20.70
2016,05,31,16,33,20.70
2016,05,31,16,34,20.70
2016,05,31,16,35,20.80
2016,05,31,16,36,20.90
2016,05,31,16,37,20.90
2016,05,31,16,38,20.90
2016,05,31,16,39,20.80
2016,05,31,16,40,20.80
2016,05,31,16,41,20.80
2016,05,31,16,42,20.80
2016,05,31,16,43,20.70
2016,05,31,16,44,20.70
2016,05,31,16,45,20.70
2016,05,31,16,46,20.80
2016,05,31,16,47,20.80
2016,05,31,16,48,20.80
2016,05,31,16,49,20.80
2016,05,31,16,50,20.90
2016,05,31,16,51,20.90
2016,05,31,16,52,21.00
2016,05,31,16,53,21.00
2016,05,31,16,54,21.00
2016,05,31,16,55,21.00
2016,05,31,16,56,21.10
2016,05,31,16,57,21.10
2016,05,31,16,58,21.00
2016,05,31,16,59,21.00
2016,05,31,17,00,21.00
2016,05,31,17,01,20.90
2016,05,31,17,02,20.90
2016,05,31,17,03,20.90
2016,05,31,17,04,20.80
2016,05,31,17,05,20.80
2016,05,31,17,06,20.70
2016,05,31,17,07,20.70
2016,05,31,17,08,20.70
2016,05,31,17,09,20.70
2016,05,31,17,10,20.80
2016,05,31,17,11,20.80
2016,05,31,17,12,20.90
2016,05,31,17,13,20.90
2016,05,31,17,14,20.90
2016,05,31,17,15,20.90
2016,05,31,17,16,20.90
2016,05,31,17,17,20.90
2016,05,31,17,18,20.90
2016,05,31,17,19,20.90